[[{"header":{"parameterUnit":"m.s-1","parameterCategory":1,"la1":30.2991,"la2":30.254,"lo1":-89.0895,"lo2":-89.0444,"dy":0.0017,"dx":0.0017,"nx":28,"ny":28,"refTime":"2025-09-19T03:00:00:Z","depth":0,"parameterNumber":2,"parameterNumberName":"U-component_of_WINDS"},"data":[0,0,0,0,0,0,0,0,0,0,0,0,0,0,0,0,0,0,0,0,0,0,0,0,0,0,0,0,0,0,0,0,0,0,0,0,0,0,0,0,0,0,0,0,0,0,0,0,0,0,0,0,0,0,0,0,0,0,3.8606,3.8609,0,3.8869,3.8872,3.8875,3.8927,3.8925,3.8923,3.8921,3.9192,3.9201,3.921,0,0,0,0,0,0,0,0,0,0,0,0,0,3.8151,3.8159,3.8605,3.8609,3.8612,3.8868,3.8872,3.8875,3.8927,3.8925,3.8922,3.892,3.9189,3.92,3.9211,0,0,0,0,0,0,0,0,0,0,0,0,0,3.8374,3.8161,3.8605,3.8669,3.8677,3.8868,3.8872,3.8876,3.8928,3.8925,3.8922,3.8919,3.9185,3.9199,3.9212,3.9358,0,0,3.9254,3.926,0,0,0,0,0,0,0,0,3.8362,3.8391,3.8656,3.8665,3.8674,3.8862,3.8811,3.9038,3.8928,3.8833,3.8921,3.8917,3.9085,3.9106,3.9163,3.9371,3.9382,3.9255,3.9264,3.9269,3.9273,0,0,0,0,0,0,0,3.8346,3.838,3.871,3.866,3.8671,3.8685,3.8714,3.8854,3.8973,3.8841,3.8845,3.8875,3.9089,3.9149,3.9169,3.9386,3.9255,3.9267,3.9275,3.9281,3.9729,3.9732,0,0,0,0,0,0,3.8319,3.8367,3.8701,3.8718,3.8507,3.8696,3.8728,3.8805,3.8971,3.8994,3.8878,3.8877,3.9127,3.9153,3.9179,3.9361,3.9269,3.9282,3.929,3.9725,3.973,3.9734,0,0,0,0,0,0,3.8309,3.8348,3.8691,3.8544,3.8588,3.8707,3.8793,3.8812,3.8872,3.8999,3.9021,3.8917,3.9126,3.916,3.9313,3.9371,3.9288,3.9301,3.9721,3.9727,3.9732,3.9725,0,0,0,0,0,0,3.8296,3.8344,3.84,3.8544,3.8596,3.8819,3.8797,3.8819,3.8895,3.8896,3.9042,3.9063,3.9126,3.9293,3.9327,3.9388,3.9311,3.9716,3.9723,3.973,3.972,3.973,3.9737,0,0,0,0,0,3.8279,3.8388,3.8403,3.8443,3.8668,3.8823,3.8852,3.8922,3.8899,3.8957,3.9039,3.9059,3.936,3.9308,3.9347,3.9413,3.9713,3.9721,3.9729,3.9717,3.9728,3.9737,0,0,0,0,0,0,3.8247,3.8408,3.8426,3.8584,3.8689,3.8831,3.8905,3.8931,3.9045,3.9041,3.9124,3.9157,3.9305,3.9375,3.9315,3.9564,3.9535,3.9552,3.9512,3.9524,3.9532,3.9511,3.9323,0,0,0,0,0,3.8259,3.837,3.8505,3.8632,3.8684,3.8786,3.8856,3.89,3.9013,3.9057,3.9151,3.926,3.9379,3.9456,3.9573,3.9732,3.9765,3.9797,3.9805,3.9812,3.9824,3.9914,3.993,3.9761,3.9761,3.9761,0,0,3.8283,3.8385,3.845,3.8628,3.8715,3.8829,3.8822,3.8943,3.9029,3.9076,3.9226,3.9299,3.9426,3.9583,3.9657,3.9646,3.9879,3.9822,3.9826,3.9836,3.9924,3.994,3.9954,3.9767,3.9766,3.9765,0,0,3.8386,3.8474,3.859,3.8677,3.8808,3.8876,3.8903,3.9042,3.9092,3.9244,3.9282,3.9386,3.959,3.9679,3.975,3.989,3.9912,3.9926,3.9969,4.0055,4.0069,4.0081,4.013,4.0146,3.9938,3.9939,3.9939,0,3.84,3.8572,3.8646,3.8765,3.8843,3.8891,3.9009,3.909,3.9253,3.9306,3.9292,3.9549,3.9638,3.9816,3.985,3.9907,3.9942,3.9908,4.0061,4.0074,4.0086,4.0134,4.0152,3.9939,3.9939,3.9939,3.9939,0,3.8583,3.8702,3.878,3.8936,3.9022,3.914,3.9232,3.9312,3.935,3.9419,3.9574,3.9683,3.9823,3.9869,3.9908,4.0054,4.0043,4.0044,4.0016,4.0102,4.0148,4.0167,3.994,3.994,3.994,3.994,0,0,3.867,3.8866,3.8893,3.8964,3.9114,3.9208,3.933,3.9466,3.9532,3.9644,3.9748,3.992,3.9922,4.0004,4.0054,4.013,4.0233,4.0122,4.0126,4.0137,4.04,4.0397,4.0417,4.0249,4.0253,4.0256,4.0389,0,3.8789,3.9005,3.9076,3.9256,3.9368,3.9417,3.9523,3.9627,3.9695,3.9801,3.9878,3.9998,3.9992,4.0042,4.012,4.0203,4.0286,4.0195,4.0346,4.0351,4.031,4.0441,4.0438,4.0558,4.0408,4.0411,4.0413,0,3.8956,3.907,3.9261,3.9398,3.9448,3.9541,3.9672,3.9773,3.9893,3.9938,4.003,4.0074,4.0203,4.017,4.035,4.0287,4.0354,4.0404,4.0411,4.0426,4.0385,4.0458,4.0598,4.0615,4.0442,4.044,4.0438,0,3.8999,3.9201,3.9341,3.9401,3.9564,3.9629,3.97,3.9817,3.9895,4.001,4.0062,4.0191,4.0262,4.0362,4.044,4.0409,4.0613,4.0586,4.0654,4.0652,4.0693,4.0688,4.0843,4.0739,4.0739,4.0738,4.0738,0,3.9123,3.9238,3.9362,3.9448,3.9579,3.9661,3.9788,3.9862,3.9966,4.0068,4.012,4.0215,4.0313,4.0422,4.0485,4.0624,4.0656,4.0696,4.0711,4.069,4.0685,4.0733,4.0726,4.0743,4.0742,4.0741,4.074,0,3.9191,3.9279,3.9435,3.9578,3.9616,3.9706,3.9829,3.9915,3.9987,4.0116,4.0151,4.0264,4.0394,4.0483,4.0651,4.0693,4.0844,4.0858,4.0802,4.0809,4.0871,4.0863,4.1061,4.1091,4.0967,4.0969,4.0969,0,3.9263,3.9353,3.9505,3.9577,3.9648,3.9764,3.9844,3.9929,4.001,4.0154,4.0223,4.0357,4.0468,4.0675,4.0772,4.0901,4.0918,4.0979,4.0937,4.0914,4.0917,4.091,4.0919,4.0984,4.0985,4.0985,4.0986,0,3.9382,3.9422,3.9535,3.9664,3.9758,3.9863,3.9969,4.0026,4.0129,4.0218,4.0352,4.0438,4.061,4.0742,4.0881,4.0955,4.0988,4.0999,4.1021,4.0999,4.0963,4.0982,4.0818,4.0993,4.0992,4.0992,4.0991,4.0991,3.9454,3.9536,3.9656,3.978,3.9869,3.9968,4.0056,4.0139,4.0252,4.0397,4.0441,4.058,4.07,4.0889,4.0966,4.1077,4.1072,4.1104,4.1112,4.1118,4.1117,4.0947,4.1103,4.1103,4.1103,4.1103,4.1103,0,3.9574,3.9654,3.9768,3.9915,4.0013,4.0037,4.0156,4.0236,4.0358,4.0466,4.0575,4.073,4.0859,4.0968,4.1102,4.1169,4.1188,4.1202,4.1196,4.1213,4.1115,4.1081,4.1184,4.1184,4.1184,4.1184,4.1184,4.1184,3.9648,3.9788,3.9842,4.0027,4.0107,4.0243,4.0309,4.0401,4.0487,4.0657,4.0765,4.0835,4.0944,4.1087,4.1207,4.1236,4.1282,4.1292,4.1324,4.1229,4.122,4.1211,4.118,4.1302,4.1302,4.1413,4.1414,4.1414]},{"header":{"parameterUnit":"m.s-1","parameterCategory":1,"la1":30.2991,"la2":30.254,"lo1":-89.0895,"lo2":-89.0444,"dy":0.0017,"dx":0.0017,"nx":28,"ny":28,"refTime":"2025-09-19T03:00:00:Z","depth":0,"parameterNumber":3,"parameterNumberName":"V-component_of_WINDS"},"data":[0,0,0,0,0,0,0,0,0,0,0,0,0,0,0,0,0,0,0,0,0,0,0,0,0,0,0,0,0,0,0,0,0,0,0,0,0,0,0,0,0,0,0,0,0,0,0,0,0,0,0,0,0,0,0,0,0,0,2.4213,2.4214,0,2.4326,2.4327,2.4329,2.4305,2.4303,2.4301,2.4299,2.441,2.4415,2.442,0,0,0,0,0,0,0,0,0,0,0,0,0,2.397,2.3975,2.4213,2.4214,2.4216,2.4326,2.4327,2.4329,2.4306,2.4303,2.4301,2.4298,2.4409,2.4415,2.442,0,0,0,0,0,0,0,0,0,0,0,0,0,2.4079,2.3976,2.4213,2.4218,2.4219,2.4326,2.4327,2.4329,2.4306,2.4303,2.43,2.4297,2.4407,2.4414,2.4421,2.4528,0,0,2.4444,2.4447,0,0,0,0,0,0,0,0,2.4072,2.4088,2.4216,2.4218,2.4219,2.4299,2.4282,2.4396,2.4307,2.4273,2.4299,2.4296,2.4375,2.4385,2.4413,2.4534,2.4538,2.4444,2.4449,2.4452,2.4454,0,0,0,0,0,0,0,2.4065,2.4082,2.4258,2.4217,2.422,2.4212,2.4224,2.4304,2.434,2.4276,2.4274,2.4288,2.4376,2.4406,2.4415,2.454,2.4444,2.4451,2.4455,2.4458,2.475,2.4753,0,0,0,0,0,0,2.4057,2.4076,2.4254,2.4261,2.4137,2.4219,2.4232,2.4276,2.4339,2.4346,2.4291,2.4287,2.4395,2.4407,2.4419,2.4547,2.4452,2.4459,2.4463,2.4747,2.4751,2.4754,0,0,0,0,0,0,2.4051,2.4073,2.4249,2.4168,2.419,2.4226,2.4276,2.428,2.431,2.4351,2.4356,2.4316,2.4393,2.4409,2.4501,2.455,2.4462,2.4469,2.4743,2.4748,2.4752,2.4804,0,0,0,0,0,0,2.4045,2.4071,2.4114,2.417,2.4195,2.4332,2.4279,2.4284,2.4323,2.4319,2.4375,2.4381,2.4392,2.449,2.4508,2.4559,2.4474,2.4738,2.4745,2.4751,2.4798,2.481,2.4821,0,0,0,0,0,2.4036,2.4124,2.4116,2.4138,2.425,2.4335,2.4349,2.436,2.4328,2.437,2.4395,2.438,2.4542,2.45,2.452,2.4574,2.4735,2.4743,2.475,2.4793,2.4808,2.482,0,0,0,0,0,0,2.4073,2.4131,2.4124,2.4233,2.4279,2.4331,2.4385,2.4376,2.4432,2.4425,2.4435,2.4448,2.4541,2.4566,2.4518,2.4678,2.4633,2.4645,2.4659,2.4674,2.4685,2.4677,2.448,0,0,0,0,0,2.4094,2.416,2.4207,2.4298,2.4322,2.4349,2.4387,2.4391,2.4439,2.4458,2.449,2.4535,2.4596,2.4636,2.4694,2.4801,2.4811,2.4847,2.4859,2.4868,2.4878,2.4933,2.4949,2.4779,2.4779,2.4779,0,0,2.4137,2.4177,2.4219,2.4306,2.4343,2.4408,2.4366,2.4438,2.4486,2.4468,2.4557,2.4582,2.4633,2.4732,2.4777,2.4756,2.4927,2.4877,2.4884,2.489,2.4943,2.4959,2.4973,2.4784,2.4783,2.4782,0,0,2.4251,2.4289,2.4368,2.4405,2.446,2.4477,2.4496,2.4549,2.4564,2.4654,2.4641,2.4697,2.4802,2.4838,2.487,2.4993,2.498,2.5011,2.507,2.5124,2.5137,2.5149,2.5191,2.5206,2.5021,2.5021,2.5021,0,2.4298,2.4399,2.4409,2.4482,2.452,2.4507,2.4585,2.462,2.4691,2.4716,2.4691,2.4821,2.4854,2.496,2.499,2.5017,2.5036,2.5006,2.5135,2.5147,2.5158,2.5198,2.5214,2.5025,2.5024,2.5024,2.5024,0,2.4452,2.4522,2.4579,2.4649,2.4692,2.4768,2.4787,2.4829,2.4829,2.4847,2.4936,2.4976,2.504,2.5065,2.5066,2.5171,2.5155,2.5133,2.5088,2.5178,2.5215,2.5231,2.503,2.5028,2.5027,2.5026,0,0,2.4595,2.4667,2.4688,2.4718,2.4777,2.4829,2.4902,2.4966,2.5001,2.5049,2.5109,2.5197,2.5175,2.5211,2.5215,2.5262,2.5354,2.5233,2.5234,2.5253,2.5469,2.5485,2.5503,2.5345,2.5348,2.535,2.5464,0,2.4713,2.4844,2.4854,2.497,2.5033,2.5019,2.5082,2.5123,2.5141,2.5195,2.5214,2.5276,2.5244,2.5265,2.5311,2.5333,2.5397,2.5325,2.5398,2.5401,2.5387,2.5523,2.5542,2.5647,2.5479,2.5481,2.5483,0,2.4869,2.4922,2.5046,2.5092,2.5119,2.5176,2.5233,2.5286,2.533,2.534,2.5379,2.5375,2.5446,2.5398,2.5495,2.5445,2.5475,2.549,2.5494,2.5502,2.5448,2.5533,2.5682,2.5697,2.5507,2.5505,2.5503,0,2.4959,2.5061,2.5148,2.5174,2.5231,2.5271,2.5296,2.5337,2.5374,2.5423,2.5447,2.5503,2.5534,2.5577,2.5587,2.5551,2.5683,2.5636,2.5691,2.5691,2.572,2.5718,2.5874,2.574,2.574,2.5739,2.5739,0,2.509,2.5166,2.5189,2.5242,2.5325,2.5333,2.5414,2.5436,2.5473,2.5528,2.5518,2.557,2.558,2.5633,2.564,2.5718,2.5732,2.574,2.5741,2.5741,2.574,2.5761,2.5754,2.5744,2.5743,2.5742,2.5741,0,2.5206,2.5224,2.5317,2.5363,2.5375,2.5434,2.5472,2.5521,2.5537,2.5606,2.5623,2.5647,2.5708,2.5722,2.5795,2.58,2.5891,2.5885,2.5877,2.5876,2.593,2.5924,2.6105,2.6128,2.5979,2.5981,2.5982,0,2.5288,2.5346,2.5397,2.5434,2.5461,2.552,2.5557,2.5566,2.5605,2.5658,2.57,2.576,2.5808,2.5905,2.5928,2.5982,2.5977,2.6037,2.5985,2.5982,2.5977,2.5973,2.5978,2.6047,2.6048,2.605,2.6051,0,2.5432,2.5437,2.5493,2.555,2.5594,2.5639,2.5682,2.5712,2.5726,2.5769,2.5832,2.587,2.5943,2.6001,2.6055,2.6078,2.6066,2.6066,2.6082,2.6082,2.6074,2.6078,2.5903,2.6063,2.6061,2.6061,2.606,2.6059,2.5533,2.5583,2.5626,2.5686,2.5719,2.5758,2.5806,2.5827,2.588,2.5941,2.5942,2.601,2.6048,2.612,2.6145,2.6196,2.6178,2.62,2.6206,2.6211,2.6215,2.6066,2.6206,2.6206,2.6205,2.6205,2.6205,0,2.5675,2.5702,2.5757,2.5817,2.5864,2.5849,2.5894,2.5934,2.5994,2.6032,2.6079,2.6149,2.6204,2.623,2.6285,2.632,2.6316,2.6334,2.6331,2.6336,2.623,2.6211,2.6336,2.6336,2.6336,2.6336,2.6336,2.6336,2.5755,2.5838,2.5847,2.5944,2.5969,2.6036,2.6063,2.6098,2.6128,2.6207,2.6254,2.627,2.6302,2.6358,2.6407,2.6413,2.6433,2.6454,2.6457,2.6357,2.6344,2.6331,2.6313,2.6458,2.6458,2.6559,2.656,2.656]}]]